SKYSAT-C4

Last updated on Sat Apr 13 2024 01:02:24 GMT+0100 (British Summer Time)

1 41771U 16058B 24103.12842564 .00011496 00000+0 35013-3 0 9997 2 41771 97.0176 153.8672 0002452 99.7782 260.3738 15.34127900423087
UTC large
Height (km)
Speed (km/s)
/
Latitude / Longitude
Inclination (degrees)
Orbital Period (minutes)
Azimuth
Elevation
Range (km)
Doppler Factor

Next 0 passes for location: London (51.5072 / 0.1276)

Sorry there are no passes over London.